User: anonymous   Login
Location: Libas
(9.8833°N, 125.9833°E)
Time: 16:05:52
(UTC+00:00)
Language:

GPS 2-15 Rocket1 - Orbit

View from above orbital plane
View from above orbital plane
View from above satellite
View from above satellite

Ground track
Ground track

The orbit data is extracted from the following two-line orbital elements,

1 22109U 92058B   21017.03310341  .00000493  00000-0  17778-4 0  9994
2 22109  19.7816 251.2592 0036691 146.1332 214.1431 14.73630416523763
Epoch (UTC): 17 January 2021 00:47:40
Eccentricity: 0.0036691
inclination: 19.7816°
perigee height: 624 km
apogee height: 675 km
right ascension of ascending node: 251.2592°
argument of perigee: 146.1332°
revolutions per day: 14.73630416
mean anomaly at epoch: 214.1431°
orbit number at epoch: 52376

The dashed part of the orbit path shows where the satellite is in the earth's shadow,  

DLR